"Date","subscriberCount","subscriberChange","viewCount","viewChange","videoCount","videoChange","commentCount","commentChange"
"2020-10-15 00:02:05","509000","0","201973921","0","598","1","0","0"
"2020-10-16 00:02:05","509000","0","202297548","323627","599","1","0","0"
"2020-10-17 00:02:04","509000","0","202552305","254757","600","1","0","0"
"2020-10-18 00:02:05","509000","0","202857406","305101","601","1","0","0"
"2020-10-19 00:02:05","509000","0","203111756","254350","602","1","0","0"
"2020-10-20 00:02:05","509000","0","203351366","239610","603","1","0","0"
"2020-10-21 00:02:04","509000","0","203558451","207085","604","1","0","0"
"2020-10-22 00:02:04","509000","0","203756827","198376","605","1","0","0"
"2020-10-23 00:02:06","510000","1000","203977937","221110","606","1","0","0"
"2020-10-24 00:02:05","510000","0","204188057","210120","607","1","0","0"
"2020-10-25 00:02:05","510000","0","204416847","228790","608","1","0","0"
"2020-10-27 00:02:04","511000","1000","204951313","534466","609","1","0","0"
"2020-10-28 00:02:04","511000","0","205141599","190286","610","1","0","0"
"2020-10-29 00:02:04","511000","0","205400571","258972","611","1","","0"
"2020-10-30 00:02:03","511000","0","205609540","208969","612","1","","0"
"2020-10-31 00:02:05","511000","0","205771103","161563","613","1","0","0"
"2020-11-01 00:02:04","511000","0","205990313","219210","614","1","0","0"
"2020-11-02 00:02:02","511000","0","206282691","292378","615","1","","0"
"2020-11-03 00:02:05","511000","0","206509974","227283","616","1","0","0"
"2020-11-04 00:02:04","512000","1000","206836856","326882","617","1","","0"
"2020-11-05 00:02:06","512000","0","207028184","191328","618","1","0","0"
"2020-11-06 00:02:05","512000","0","207293736","265552","619","1","0","0"
"2020-11-07 00:02:06","512000","0","207500064","206328","620","1","0","0"
"2020-11-08 00:02:05","512000","0","207820180","320116","621","1","0","0"
"2020-11-09 00:02:06","513000","1000","208122480","302300","622","1","","0"
"2020-11-10 00:02:05","513000","0","208370847","248367","623","1","","0"
"2020-11-11 00:02:04","513000","0","208600518","229671","624","1","","0"
"2020-11-12 00:02:03","513000","0","208833982","233464","625","1","","0"
"2020-11-13 00:02:03","513000","0","209080812","246830","626","1","","0"
"2020-11-14 00:02:02","514000","1000","209357006","276194","627","1","","0"
"2020-11-15 00:02:02","514000","0","209766558","409552","628","1","","0"
"2020-11-16 00:02:04","515000","1000","210154938","388380","629","1","","0"
"2020-11-17 00:02:02","515000","0","210476568","321630","630","1","","0"
"2020-11-18 00:02:03","515000","0","210788605","312037","631","1","","0"
"2020-11-19 00:02:02","516000","1000","211143882","355277","632","1","","0"
"2020-11-20 00:02:03","516000","0","211508099","364217","633","1","","0"
"2020-11-21 00:02:02","517000","1000","211950013","441914","634","1","","0"
"2020-11-22 00:02:03","517000","0","212443080","493067","635","1","","0"
"2020-11-23 00:02:03","518000","1000","213022740","579660","636","1","","0"
"2020-11-24 00:02:03","519000","1000","213567942","545202","637","1","","0"
"2020-11-25 00:02:02","520000","1000","213964685","396743","638","1","","0"
"2020-11-26 00:02:03","521000","1000","214488812","524127","639","1","","0"
"2020-11-27 00:02:03","521000","0","214897513","408701","640","1","","0"
"2020-11-28 00:02:03","522000","1000","215320264","422751","641","1","","0"
"2020-11-29 00:02:03","523000","1000","215898351","578087","642","1","","0"
"2020-11-30 00:02:03","524000","1000","216566440","668089","643","1","","0"
"2020-12-01 00:02:03","525000","1000","216980260","413820","644","1","","0"
"2020-12-02 00:02:03","526000","1000","217370031","389771","645","1","","0"
"2020-12-03 00:02:03","526000","0","217915986","545955","646","1","","0"
"2020-12-04 00:02:03","527000","1000","218351771","435785","647","1","","0"
"2020-12-05 00:02:06","527000","0","218738185","386414","648","1","","0"
"2020-12-06 00:02:03","528000","1000","219173659","435474","649","1","","0"
"2020-12-07 00:02:03","528000","0","219690636","516977","650","1","","0"
"2020-12-08 00:02:03","529000","1000","220018438","327802","651","1","","0"
"2020-12-09 00:02:03","529000","0","220435378","416940","652","1","","0"
"2020-12-10 00:02:03","530000","1000","220794575","359197","653","1","","0"
"2020-12-11 00:02:03","530000","0","221055261","260686","654","1","","0"
"2020-12-12 00:02:04","530000","0","221373498","318237","655","1","","0"
"2020-12-13 00:02:04","531000","1000","221722133","348635","656","1","","0"
"2020-12-14 00:02:04","531000","0","222085409","363276","657","1","","0"
"2020-12-15 00:02:05","531000","0","222383064","297655","658","1","","0"
"2020-12-16 00:02:04","531000","0","222655528","272464","659","1","","0"
"2020-12-17 00:02:04","532000","1000","222914246","258718","660","1","","0"
"2020-12-18 00:02:04","532000","0","223184351","270105","661","1","","0"
"2020-12-19 00:02:04","532000","0","223407157","222806","662","1","","0"
"2020-12-20 00:02:04","532000","0","223775736","368579","663","1","","0"
"2020-12-21 00:02:04","533000","1000","224102777","327041","664","1","","0"
"2020-12-22 00:02:03","533000","0","224328851","226074","665","1","","0"
"2020-12-23 00:02:03","533000","0","224573478","244627","666","1","","0"
"2020-12-24 00:02:04","534000","1000","224804134","230656","667","1","","0"
"2020-12-25 00:02:04","534000","0","225086773","282639","668","1","","0"
"2020-12-26 00:02:03","534000","0","225349460","262687","669","1","","0"
"2020-12-27 00:02:03","534000","0","225600113","250653","670","1","","0"
"2020-12-28 00:02:04","534000","0","225874210","274097","671","1","","0"
"2020-12-29 00:02:04","534000","0","226146922","272712","672","1","","0"
"2020-12-30 00:02:03","535000","1000","226453649","306727","673","1","","0"
"2020-12-31 00:02:03","535000","0","226747604","293955","674","1","","0"
"2021-01-01 00:02:04","535000","0","227000901","253297","675","1","","0"
"2021-01-02 00:02:05","536000","1000","227218435","217534","676","1","","0"
"2021-01-03 00:02:05","536000","0","227596724","378289","677","1","","0"
"2021-01-04 00:02:05","536000","0","227887193","290469","678","1","","0"
"2021-01-05 00:02:06","536000","0","228215796","328603","679","1","","0"
"2021-01-06 00:02:05","536000","0","228641993","426197","680","1","","0"
"2021-01-07 00:02:02","537000","1000","228996545","354552","681","1","","0"
"2021-01-08 00:02:03","537000","0","229384437","387892","682","1","","0"
"2021-01-09 00:02:02","537000","0","229759314","374877","683","1","","0"
"2021-01-10 00:02:03","538000","1000","230221713","462399","684","1","","0"
"2021-01-11 00:02:03","538000","0","230637066","415353","685","1","","0"
"2021-01-12 00:02:03","539000","1000","231058383","421317","686","1","","0"
"2021-01-13 00:02:03","539000","0","231433888","375505","687","1","","0"
"2021-01-14 00:02:02","539000","0","231743321","309433","688","1","","0"
"2021-01-15 00:02:03","540000","1000","232072914","329593","689","1","","0"
"2021-01-16 00:02:03","540000","0","232358441","285527","690","1","","0"
"2021-01-17 00:02:03","540000","0","232673707","315266","691","1","","0"
"2021-01-18 00:02:04","541000","1000","233058089","384382","692","1","","0"
"2021-01-19 00:02:03","541000","0","233367802","309713","693","1","","0"
"2021-01-20 00:02:03","541000","0","233685708","317906","694","1","","0"
"2021-01-21 00:02:03","542000","1000","234060748","375040","695","1","","0"
"2021-01-22 00:02:02","542000","0","234370538","309790","696","1","","0"
"2021-01-23 00:02:03","542000","0","234758658","388120","697","1","","0"
"2021-01-24 00:02:02","543000","1000","235187128","428470","698","1","","0"
"2021-01-25 00:02:03","543000","0","235624897","437769","699","1","","0"
"2021-01-26 00:02:03","543000","0","235961256","336359","700","1","","0"
"2021-01-27 00:02:03","544000","1000","236311691","350435","701","1","","0"
"2021-01-28 00:02:03","544000","0","236623787","312096","702","1","","0"
"2021-01-29 00:02:03","544000","0","236956155","332368","703","1","","0"
"2021-01-30 00:02:03","545000","1000","237278601","322446","704","1","","0"
"2021-01-31 00:02:02","545000","0","237720397","441796","705","1","","0"
"2021-02-01 00:02:03","546000","1000","238196874","476477","706","1","","0"
"2021-02-02 00:02:02","546000","0","238548858","351984","707","1","","0"
"2021-02-03 00:02:03","546000","0","238834502","285644","708","1","","0"
"2021-02-04 00:02:03","546000","0","239105993","271491","709","1","","0"
"2021-02-05 00:02:03","547000","1000","239364877","258884","710","1","","0"
"2021-02-06 00:02:03","547000","0","239621352","256475","711","1","","0"
"2021-02-07 00:02:02","547000","0","239949659","328307","712","1","","0"
"2021-02-08 00:02:03","547000","0","240313340","363681","713","1","","0"
"2021-02-09 00:02:03","547000","0","240592560","279220","714","1","","0"
"2021-02-10 00:02:03","547000","0","240879556","286996","715","1","","0"
"2021-02-11 00:02:03","548000","1000","241097593","218037","716","1","","0"
"2021-02-12 00:02:02","548000","0","241453906","356313","717","1","","0"
"2021-02-13 00:02:03","548000","0","241713741","259835","718","1","","0"
"2021-02-14 00:02:03","548000","0","242013597","299856","719","1","","0"
"2021-02-15 00:02:02","548000","0","242277223","263626","720","1","","0"
"2021-02-16 00:02:03","549000","1000","242605677","328454","721","1","","0"
"2021-02-17 00:02:02","549000","0","242853852","248175","722","1","","0"
"2021-02-18 00:02:03","549000","0","243137171","283319","723","1","","0"
"2021-02-19 00:02:02","549000","0","243412171","275000","724","1","","0"
"2021-02-20 00:02:03","549000","0","243669239","257068","725","1","","0"
"2021-02-21 00:02:03","550000","1000","244029791","360552","726","1","","0"
"2021-02-22 00:02:03","550000","0","244440488","410697","727","1","","0"
"2021-02-23 00:02:03","550000","0","244741971","301483","728","1","","0"
"2021-02-24 00:02:03","550000","0","245131356","389385","729","1","","0"
"2021-02-25 00:02:02","551000","1000","245443065","311709","730","1","","0"
"2021-02-26 00:02:03","551000","0","245712115","269050","731","1","","0"
"2021-02-27 00:02:02","551000","0","246037476","325361","732","1","","0"
"2021-02-28 00:02:03","551000","0","246430558","393082","733","1","","0"
"2021-03-01 00:02:02","552000","1000","246805386","374828","734","1","","0"
"2021-03-02 00:02:03","552000","0","247105950","300564","735","1","","0"
"2021-03-03 00:02:03","552000","0","247397574","291624","736","1","","0"
"2021-03-04 00:02:02","552000","0","247754995","357421","737","1","","0"
"2021-03-05 00:02:03","553000","1000","247839057","84062","738","1","","0"
"2021-03-06 00:02:03","553000","0","248208143","369086","739","1","","0"
"2021-03-07 00:02:03","553000","0","248540181","332038","740","1","","0"
"2021-03-08 00:02:03","553000","0","249005600","465419","741","1","","0"
"2021-03-09 00:02:02","554000","1000","249423213","417613","742","1","","0"
"2021-03-10 00:02:03","554000","0","249759594","336381","743","1","","0"
"2021-03-11 00:02:02","554000","0","250140768","381174","744","1","","0"
"2021-03-12 00:02:03","555000","1000","250507368","366600","745","1","","0"
"2021-03-13 00:02:03","555000","0","250826937","319569","746","1","","0"
"2021-03-14 00:02:03","555000","0","251161693","334756","747","1","","0"
"2021-03-15 00:02:03","555000","0","251537825","376132","748","1","","0"
"2021-03-16 00:02:02","556000","1000","251907978","370153","749","1","","0"
"2021-03-17 00:02:03","556000","0","252201752","293774","750","1","","0"
"2021-03-18 00:02:02","556000","0","252462685","260933","751","1","","0"
"2021-03-19 00:02:03","556000","0","252767419","304734","752","1","","0"
"2021-03-20 00:02:02","557000","1000","253049440","282021","753","1","","0"
"2021-03-21 00:02:03","557000","0","253346620","297180","754","1","","0"
"2021-03-22 00:02:02","557000","0","253631806","285186","755","1","","0"
"2021-03-23 00:02:03","557000","0","253963725","331919","756","1","","0"
"2021-03-24 00:02:03","557000","0","254225125","261400","757","1","","0"
"2021-03-25 00:02:02","558000","1000","254490745","265620","758","1","","0"
"2021-03-26 00:02:03","558000","0","254734940","244195","759","1","","0"
"2021-03-27 00:02:02","558000","0","254956406","221466","760","1","","0"
"2021-03-28 00:02:03","558000","0","255263282","306876","761","1","","0"
"2021-03-29 00:02:03","558000","0","255545296","282014","762","1","","0"
"2021-03-30 00:02:03","558000","0","255868914","323618","763","1","","0"
"2021-03-31 00:02:02","559000","1000","256209835","340921","764","1","","0"
"2021-04-01 00:02:03","559000","0","256557998","348163","765","1","","0"
"2021-04-02 00:02:02","559000","0","256898490","340492","766","1","","0"
"2021-04-03 00:02:02","559000","0","257258738","360248","767","1","","0"
"2021-04-04 00:02:03","560000","1000","257626389","367651","768","1","","0"
"2021-04-05 00:02:03","560000","0","258003918","377529","769","1","","0"
"2021-04-06 00:02:03","561000","1000","258342746","338828","770","1","","0"
"2021-04-07 00:02:03","561000","0","258722443","379697","771","1","","0"
"2021-04-08 00:02:03","561000","0","259039473","317030","772","1","","0"
"2021-04-09 00:02:03","562000","1000","259366214","326741","773","1","","0"
"2021-04-10 00:02:03","562000","0","259667982","301768","774","1","","0"
"2021-04-11 00:02:04","562000","0","259967683","299701","775","1","","0"
"2021-04-12 00:02:03","563000","1000","260403472","435789","776","1","","0"
"2021-04-13 00:02:03","563000","0","260848682","445210","777","1","","0"
"2021-04-14 00:02:03","564000","1000","261267478","418796","778","1","","0"
"2021-04-15 00:02:03","564000","0","261569775","302297","779","1","","0"
"2021-04-16 00:02:04","564000","0","261845479","275704","780","1","","0"
"2021-04-17 00:02:03","564000","0","262093870","248391","781","1","","0"
"2021-04-18 00:02:04","565000","1000","262346774","252904","782","1","","0"
"2021-04-19 00:02:04","565000","0","262663475","316701","783","1","","0"
"2021-04-20 00:02:03","565000","0","263001729","338254","784","1","","0"
"2021-04-21 00:02:03","565000","0","263247699","245970","785","1","","0"
"2021-04-22 00:02:03","565000","0","263462168","214469","786","1","","0"
"2021-04-23 00:02:03","565000","0","263664016","201848","787","1","","0"
"2021-04-24 00:02:03","566000","1000","263880621","216605","788","1","","0"
"2021-04-25 00:02:03","566000","0","264085102","204481","789","1","","0"
"2021-04-26 00:02:04","566000","0","264315657","230555","790","1","","0"
"2021-04-27 00:02:03","566000","0","264487069","171412","791","1","","0"
"2021-04-28 00:02:03","566000","0","264779307","292238","792","1","","0"
"2021-04-29 00:02:03","566000","0","264951662","172355","793","1","","0"
"2021-04-30 00:02:03","567000","1000","265123126","171464","794","1","","0"
"2021-05-01 00:02:04","567000","0","265346111","222985","795","1","","0"
"2021-05-02 00:02:03","567000","0","265511528","165417","796","1","","0"
"2021-05-03 00:02:04","567000","0","265707298","195770","797","1","","0"
"2021-05-04 00:02:04","567000","0","265881628","174330","798","1","","0"
"2021-05-05 00:02:03","568000","1000","266123586","241958","799","1","","0"
"2021-05-06 00:02:03","568000","0","266339062","215476","800","1","","0"
"2021-05-07 00:02:04","568000","0","266569105","230043","801","1","","0"
"2021-05-08 00:02:04","568000","0","266751921","182816","802","1","","0"
"2021-05-09 00:02:02","568000","0","266916362","164441","803","1","","0"
"2021-05-10 00:02:04","569000","1000","267138691","222329","804","1","","0"
"2021-05-11 00:02:03","569000","0","267416587","277896","805","1","","0"
"2021-05-12 00:02:04","569000","0","267607830","191243","806","1","","0"
"2021-05-13 00:02:03","569000","0","267823138","215308","807","1","","0"
"2021-05-14 00:02:04","569000","0","268020756","197618","807","0","","0"
"2021-05-15 00:02:04","569000","0","268185509","164753","808","1","","0"
"2021-05-16 00:02:04","570000","1000","268313793","128284","809","1","","0"
"2021-05-17 00:02:03","570000","0","268571133","257340","810","1","","0"
"2021-05-18 00:02:04","570000","0","268874686","303553","811","1","","0"
"2021-05-19 00:02:03","570000","0","269154713","280027","812","1","","0"
"2021-05-20 00:02:03","571000","1000","269459395","304682","813","1","","0"
"2021-05-21 00:02:03","571000","0","269723295","263900","814","1","","0"
"2021-05-22 00:02:03","571000","0","270056584","333289","815","1","","0"
"2021-05-23 00:02:04","572000","1000","270417380","360796","816","1","","0"
"2021-05-24 00:02:04","573000","1000","270836670","419290","817","1","","0"
"2021-05-25 00:02:04","573000","0","271248806","412136","818","1","","0"
"2021-05-26 00:02:03","573000","0","271714702","465896","819","1","","0"
"2021-05-27 00:02:03","574000","1000","272047993","333291","820","1","","0"
"2021-05-28 00:02:03","574000","0","272394913","346920","821","1","","0"
"2021-05-29 00:02:04","574000","0","272735809","340896","822","1","","0"
"2021-05-30 00:02:05","575000","1000","273115224","379415","823","1","","0"
"2021-05-31 00:02:04","576000","1000","273708515","593291","824","1","","0"
"2021-06-01 00:02:04","577000","1000","274412813","704298","825","1","","0"
"2021-06-02 00:02:03","578000","1000","275144521","731708","826","1","","0"
"2021-06-03 00:02:03","579000","1000","275693951","549430","827","1","","0"
"2021-06-04 00:02:03","580000","1000","276175956","482005","828","1","","0"
"2021-06-05 00:02:03","581000","1000","276720163","544207","829","1","","0"
"2021-06-06 00:02:03","581000","0","277257406","537243","830","1","","0"
"2021-06-07 00:02:03","582000","1000","277973485","716079","831","1","","0"
"2021-06-08 00:02:05","583000","1000","278636084","662599","832","1","","0"
"2021-06-09 00:02:02","583000","0","279059610","423526","833","1","","0"
"2021-06-10 00:02:03","584000","1000","279488626","429016","834","1","","0"
"2021-06-11 00:02:04","584000","0","279874735","386109","835","1","","0"
"2021-06-12 00:02:04","585000","1000","280264061","389326","836","1","","0"
"2021-06-13 00:02:03","585000","0","280645261","381200","837","1","","0"
"2021-06-14 00:02:03","586000","1000","281201418","556157","838","1","","0"
"2021-06-15 00:02:03","586000","0","281767861","566443","839","1","","0"
"2021-06-16 00:02:03","587000","1000","282131599","363738","840","1","","0"
"2021-06-17 00:02:03","587000","0","282444281","312682","841","1","","0"
"2021-06-18 00:02:03","587000","0","282773536","329255","842","1","","0"
"2021-06-19 00:02:03","587000","0","283066325","292789","843","1","","0"
"2021-06-20 00:02:03","588000","1000","283354302","287977","844","1","","0"
"2021-06-21 00:02:03","588000","0","283727846","373544","845","1","","0"
"2021-06-22 00:02:03","588000","0","284132958","405112","846","1","","0"
"2021-06-23 00:02:03","589000","1000","284418835","285877","847","1","","0"
"2021-06-24 00:02:03","589000","0","284782287","363452","848","1","","0"
"2021-06-25 00:02:03","590000","1000","285218274","435987","849","1","","0"
"2021-06-26 00:02:04","591000","1000","285746109","527835","850","1","","0"
"2021-06-27 00:02:04","591000","0","286217977","471868","851","1","","0"
"2021-06-28 00:02:03","592000","1000","286922619","704642","852","1","","0"
"2021-06-29 00:02:04","593000","1000","287651425","728806","853","1","","0"
"2021-06-30 00:02:03","594000","1000","288116399","464974","854","1","","0"
"2021-07-01 00:02:04","594000","0","288652088","535689","855","1","","0"
"2021-07-02 00:02:03","594000","0","289040848","388760","856","1","","0"
"2021-07-03 00:02:04","594000","0","289402496","361648","857","1","","0"
"2021-07-04 00:02:04","595000","1000","289752472","349976","858","1","","0"
"2021-07-05 00:02:04","595000","0","290136198","383726","859","1","","0"
"2021-07-06 00:02:04","595000","0","290306330","170132","860","1","","0"
"2021-07-07 00:02:03","595000","0","290858827","552497","861","1","","0"
"2021-07-08 00:02:04","596000","1000","291131216","272389","862","1","","0"
"2021-07-09 00:02:05","596000","0","291378411","247195","863","1","","0"
"2021-07-10 00:02:04","596000","0","291617005","238594","864","1","","0"
"2021-07-11 00:02:03","596000","0","291842598","225593","865","1","","0"
"2021-07-12 00:02:03","596000","0","292131259","288661","866","1","","0"
"2021-07-13 00:02:02","596000","0","292367514","236255","867","1","","0"
"2021-07-14 00:02:03","597000","1000","292684289","316775","868","1","","0"
"2021-07-15 00:02:03","597000","0","292983869","299580","869","1","","0"
"2021-07-16 00:02:03","597000","0","293285942","302073","870","1","","0"
"2021-07-17 00:02:02","597000","0","293627797","341855","871","1","","0"
"2021-07-18 00:02:02","598000","1000","294016905","389108","872","1","","0"
"2021-07-19 00:02:03","598000","0","294508195","491290","873","1","","0"
"2021-07-20 00:02:03","599000","1000","294996179","487984","874","1","","0"
"2021-07-21 00:02:02","599000","0","295349342","353163","875","1","","0"
"2021-07-22 00:02:02","599000","0","295685754","336412","876","1","","0"
"2021-07-23 00:02:03","600000","1000","296119847","434093","877","1","","0"
"2021-07-24 00:02:02","600000","0","296519431","399584","878","1","","0"
"2021-07-25 00:02:03","600000","0","296879129","359698","879","1","","0"
"2021-07-26 00:02:03","601000","1000","297248285","369156","880","1","","0"
"2021-07-27 00:02:02","601000","0","297664425","416140","881","1","","0"
"2021-07-28 00:02:03","601000","0","298063554","399129","882","1","","0"
"2021-07-29 00:02:02","601000","0","298387248","323694","883","1","","0"
"2021-07-30 00:02:03","602000","1000","298732080","344832","884","1","","0"
"2021-07-31 00:02:03","602000","0","299081820","349740","885","1","","0"
"2021-08-01 00:02:02","602000","0","299415359","333539","886","1","","0"
"2021-08-02 00:02:03","602000","0","299731107","315748","887","1","","0"
"2021-08-03 00:02:02","602000","0","300096566","365459","888","1","","0"
"2021-08-04 00:02:03","603000","1000","300554035","457469","889","1","","0"
"2021-08-05 00:02:02","603000","0","300967170","413135","890","1","","0"
"2021-08-06 00:02:02","603000","0","301402354","435184","891","1","","0"
"2021-08-07 00:02:02","604000","1000","301650839","248485","892","1","","0"
"2021-08-08 00:02:03","604000","0","301985714","334875","893","1","","0"
"2021-08-09 00:02:03","604000","0","302279514","293800","894","1","","0"
"2021-08-10 00:02:03","604000","0","302579862","300348","895","1","","0"
"2021-08-11 00:02:03","604000","0","302579862","0","896","1","","0"
"2021-08-12 00:02:03","604000","0","303128545","548683","897","1","","0"
"2021-08-13 00:02:03","604000","0","303386732","258187","898","1","","0"
"2021-08-14 00:02:03","604000","0","303618832","232100","899","1","","0"
"2021-08-15 00:02:03","604000","0","303832686","213854","900","1","","0"
"2021-08-16 00:02:04","605000","1000","304052488","219802","901","1","","0"
"2021-08-17 00:02:04","605000","0","304241940","189452","902","1","","0"
"2021-08-18 00:02:02","605000","0","304628075","386135","903","1","","0"
"2021-08-19 00:02:02","605000","0","304924577","296502","904","1","","0"
"2021-08-20 00:02:02","606000","1000","305285278","360701","905","1","","0"
"2021-08-21 00:02:03","606000","0","305719994","434716","906","1","","0"
"2021-08-22 00:02:07","607000","1000","306122746","402752","907","1","","0"
"2021-08-23 00:02:02","608000","1000","306592771","470025","908","1","","0"
"2021-08-24 00:02:03","609000","1000","307161215","568444","909","1","","0"
"2021-08-25 00:02:03","609000","0","307687496","526281","910","1","","0"
"2021-08-26 00:02:03","610000","1000","308028698","341202","911","1","","0"
"2021-08-27 00:02:02","610000","0","308527853","499155","912","1","","0"
"2021-08-28 00:02:03","610000","0","308903648","375795","913","1","","0"
"2021-08-29 00:02:02","610000","0","309273529","369881","914","1","","0"
"2021-08-30 00:02:03","611000","1000","309622114","348585","915","1","","0"
"2021-08-31 00:02:03","611000","0","309775579","153465","916","1","","0"
"2021-09-01 00:02:03","611000","0","310244434","468855","917","1","","0"
"2021-09-02 00:02:03","611000","0","310533429","288995","918","1","","0"